Regional Weather Roundup
Issued by NWS Sioux Falls, SD

Home | Current Version | Previous Version | Text Only | Print | Product List | Glossary On
Versions: 1 2 3 4 5 6 7 8 9 10 11 12 13 14 15 16 17 18 19 20 21 22 23 24 25 26 27 28 29 30 31 32 33 34 35 36 37 38 39 40 41 42 43 44 45 46 47 48 49 50
000
ASUS43 KFSD 260002
RWRFSD

WEATHER ROUNDUP FOR SE SOUTH DAKOTA/SW MINNESOTA/NW IOWA
NATIONAL WEATHER SERVICE SIOUX FALLS SD
700 PM CDT THU MAY 25 2017

NOTE: "FAIR" INDICATES FEW OR NO CLOUDS BELOW 12,000 FEET WITH NO
SIGNIFICANT WEATHER AND OR OBSTRUCTIONS TO VISIBILITY.


SDZ038>040-050-052>070-260100-
SOUTHEAST SOUTH DAKOTA

CITY           SKY/WX    TMP DP  RH WIND       PRES   REMARKS
BROOKINGS      CLOUDY    62  55  77 S7        29.56R
CHAMBERLAIN    PTSUNNY   74  47  37 NW3       29.54R
6HR MIN TEMP:  64; 6HR MAX TEMP:  75;

HURON          PTSUNNY   69  55  60 S8        29.51S
6HR MIN TEMP:  61; 6HR MAX TEMP:  70; 6HR PCP:  0.02;

MADISON        FAIR      63  63 100 S8        29.56S
MITCHELL       PTSUNNY   71  54  54 SW5       29.53S
6HR MIN TEMP:  63; 6HR MAX TEMP:  72; 6HR PCP:  0.01;

SIOUX FALLS    PTSUNNY   70  53  54 S13       29.55S
6HR MIN TEMP:  66; 6HR MAX TEMP:  72; 6HR PCP: TRACE;

WINNER         FAIR      71  43  36 NW7       29.57R
YANKTON        SUNNY     74  51  44 SW6       29.55R
$$

MNZ071-072-080-081-089-090-097-098-260100-
SOUTHWEST MINNESOTA

CITY           SKY/WX    TMP DP  RH WIND       PRES   REMARKS
FAIRMONT       CLOUDY    67  49  52 SE12      29.63R
JACKSON        CLOUDY    64  50  59 SE3       29.62S
LUVERNE        PTSUNNY   68  46  45 S9        29.59S
MARSHALL       LGT RAIN  63  56  78 S8        29.58S
6HR MIN TEMP:  63; 6HR MAX TEMP:  71; 6HR PCP: TRACE;

MONTEVIDEO     DRIZZLE   64  54  68 S9        29.55F
PIPESTONE      CLOUDY    66  48  52 S10       29.58S
REDWOOD FALLS  LGT RAIN  66  52  60 SE9       29.59S
TRACY          DRIZZLE   65  58  79 CALM      29.60R
WINDOM         CLOUDY    66  52  59 SE8       29.61S
WORTHINGTON    CLOUDY    67  53  61 S5        29.61R
$$

IAZ001>003-012>014-020>022-031-032-NEZ013-014-SDZ071-260100-
NORTHWEST IOWA

CITY           SKY/WX    TMP DP  RH WIND       PRES   REMARKS
CHEROKEE       CLOUDY    70  55  58 CALM      29.59S
DENISON        MOSUNNY   70  52  52 VRB6G14   29.58R
ESTHERVILLE    LGT RAIN  63  55  75 SE8       29.61R
LE MARS        CLOUDY    73  52  46 S9        29.58S
ORANGE CITY    PTSUNNY   72  52  49 S5        29.59S
SHELDON        CLOUDY    70  50  49 CALM      29.58S
SIOUX CITY     PTSUNNY   73  54  51 SE7       29.56R
6HR MIN TEMP:  69; 6HR MAX TEMP:  74; 6HR PCP: TRACE;

SPENCER        CLOUDY    68  56  65 SE3       29.60R
6HR MIN TEMP:  68; 6HR MAX TEMP:  74; 6HR PCP: TRACE;

STORM LAKE     CLOUDY    68  50  52 SE6       29.58R
$$

ABBREVIATIONS USED IN REMARKS
   TC - TEMPERATURE IN CELSIUS
  WCI - WIND CHILL INDEX
   HX - HEAT INDEX
  VSB - VISIBILITY





USA.gov is the U.S. government's official web portal to all federal, state and local government web resources and services.